EW4931 Weather Reports


Display with metric or nautical units.
time (UTC)temp
F
wind
direction
speed
MPH
gust
MPH
rain 1hr
in
rain 24hr
in
rain mn
in
humidity
%
barometer
mb
20260905030812 53 44 2.0 4.0 0.00 0.00 0.00 93 994.6
20260905030313 53 44 2.0 4.0 0.00 0.00 0.00 93 994.5
20260905025810 53 45 1.0 3.0 0.00 0.00 0.00 93 994.5
20260905025313 53 47 1.0 4.0 0.00 0.00 0.00 93 994.4
20260905024805 53 47 2.0 4.0 0.00 0.00 0.00 93 994.4
20260905024303 53 38 2.0 4.0 0.00 0.00 0.00 93 994.4
20260905023806 53 38 1.0 4.0 0.00 0.00 0.00 93 994.4
20260905023301 53 37 2.0 4.0 0.00 0.00 0.00 93 994.3
20260905022802 53 37 2.0 4.0 0.00 0.00 0.00 93 994.3
20260905022305 53 37 2.0 4.0 0.00 0.00 0.00 93 994.3
20260905021803 53 32 2.0 5.0 0.00 0.00 0.00 93 994.2
20260905021303 53 34 4.0 6.0 0.00 0.00 0.00 93 994.2
20260905020802 53 51 4.0 6.0 0.00 0.00 0.00 93 994.1
20260905020302 53 25 4.0 6.0 0.00 0.00 0.00 93 994.0
20260905015802 53 39 2.0 6.0 0.00 0.00 0.00 93 994.0
20260905015306 53 59 3.0 6.0 0.00 0.00 0.00 93 994.0
20260905014802 53 52 2.0 6.0 0.00 0.00 0.00 93 994.0
20260905014522 53 54 2.0 6.0 0.00 0.00 0.00 93 994.0
20260905014026 53 31 3.0 6.0 0.00 0.00 0.00 93 993.9
20260905013302 53 48 3.0 6.0 0.00 0.00 0.00 93 993.9
20260905012801 53 32 4.0 6.0 0.00 0.00 0.00 93 994.0
20260905012301 53 31 2.0 6.0 0.00 0.00 0.00 93 993.9
20260905011801 53 35 3.0 5.0 0.00 0.00 0.00 93 994.0
20260905011301 54 32 3.0 5.0 0.00 0.00 0.00 93 993.9
20260905011020 54 42 2.0 6.0 0.00 0.00 0.00 93 993.9
20260905010301 54 54 4.0 6.0 0.00 0.00 0.00 93 993.8
20260905005801 53 52 2.0 5.0 0.00 0.00 0.00 93 993.8
20260905005300 53 47 2.0 6.0 0.00 0.00 0.00 94 993.8
20260905005019 53 61 4.0 6.0 0.00 0.00 0.00 93 993.8
20260905004301 53 73 4.0 6.0 0.00 0.00 0.00 93 993.8
20260905003801 53 76 4.0 6.0 0.00 0.00 0.00 93 993.8
20260905003301 53 41 2.0 5.0 0.00 0.00 0.00 93 993.8
20260905002800 53 25 2.0 5.0 0.00 0.00 0.00 93 993.8
20260905002300 53 41 2.0 7.0 0.00 0.00 0.00 93 993.8
20260905001801 53 38 1.0 7.0 0.00 0.00 0.00 93 993.8
20260905001301 53 63 3.0 7.0 0.00 0.00 0.00 93 993.9
20260905001020 53 71 2.0 7.0 0.00 0.00 0.00 93 993.9
20260905000300 53 31 3.0 5.0 0.00 0.00 0.00 93 993.9
20260904235759 53 44 1.0 4.0 0.00 0.00 0.00 93 993.8
20260904235527 53 49 2.0 5.0 0.00 0.00 0.00 93 993.9
20260904234801 53 71 3.0 5.0 0.00 0.00 0.00 93 993.9
20260904234259 53 38 2.0 4.0 0.00 0.00 0.00 93 993.9
20260904233800 53 48 2.0 4.0 0.00 0.00 0.00 93 993.9
20260904233259 53 56 1.0 3.0 0.00 0.00 0.00 93 994.0
20260904232804 53 56 4.0 5.0 0.00 0.00 0.00 93 994.0
20260904232758 53 56 1.0 5.0 0.00 0.00 0.00 93 994.0
20260904231759 53 66 2.0 4.0 0.00 0.00 0.00 94 994.0
20260904231258 53 103 2.0 7.0 0.00 0.00 0.00 94 993.9
20260904230759 53 49 2.0 7.0 0.00 0.00 0.00 94 993.9
20260904230258 53 80 4.0 7.0 0.00 0.00 0.00 94 993.9
20260904225759 53 76 3.0 5.0 0.00 0.00 0.00 94 993.8
20260904225259 53 66 2.0 5.0 0.00 0.00 0.00 94 993.8
20260904224758 53 82 2.0 7.0 0.00 0.00 0.00 94 993.8
20260904224258 53 56 3.0 7.0 0.00 0.00 0.00 94 993.9
20260904224015 53 62 3.0 6.0 0.00 0.00 0.00 94 993.9
20260904223516 53 61 4.0 6.0 0.00 0.00 0.00 94 993.8
20260904222757 53 66 3.0 5.0 0.00 0.00 0.00 94 994.0
20260904222257 53 65 3.0 5.0 0.00 0.00 0.00 93 994.0
20260904221758 53 82 2.0 6.0 0.00 0.00 0.00 93 994.0
20260904221257 53 66 3.0 6.0 0.00 0.00 0.00 93 994.1
20260904220757 53 94 3.0 5.0 0.00 0.00 0.00 93 994.2
20260904220257 53 107 4.0 6.0 0.00 0.00 0.00 93 994.2
20260904215758 53 92 4.0 6.0 0.00 0.00 0.00 93 994.3
20260904215257 53 106 2.0 3.0 0.00 0.00 0.00 93 994.4
20260904214757 53 128 1.0 3.0 0.00 0.00 0.00 93 994.4
20260904214257 53 138 0.0 4.0 0.00 0.00 0.00 93 994.5
20260904213757 53 71 1.0 4.0 0.00 0.00 0.00 93 994.4
20260904213257 53 125 2.0 4.0 0.00 0.00 0.00 93 994.5
20260904212756 53 86 2.0 4.0 0.00 0.00 0.00 93 994.5
20260904212256 53 69 2.0 5.0 0.00 0.00 0.00 93 994.5
20260904211756 53 83 2.0 5.0 0.00 0.00 0.00 93 994.5
20260904211256 53 134 2.0 5.0 0.00 0.00 0.00 93 994.5
20260904210756 53 93 2.0 4.0 0.00 0.00 0.00 93 994.5
20260904210256 53 47 0.0 4.0 0.00 0.00 0.00 93 994.5
20260904210012 53 45 2.0 4.0 0.00 0.00 0.00 93 994.6
20260904205256 53 45 1.0 3.0 0.00 0.00 0.00 93 994.5
20260904204755 53 45 1.0 4.0 0.00 0.00 0.00 93 994.5
20260904204515 53 97 2.0 4.0 0.00 0.00 0.00 93 994.5
20260904203755 53 66 2.0 6.0 0.00 0.00 0.00 93 994.7
20260904203255 53 82 4.0 6.0 0.00 0.00 0.00 93 994.6
20260904202755 53 113 2.0 3.0 0.00 0.00 0.00 93 994.7
20260904202513 53 113 2.0 3.0 0.00 0.00 0.00 93 994.8
20260904201755 53 114 1.0 4.0 0.00 0.00 0.00 93 994.8
20260904201255 53 96 1.0 4.0 0.00 0.00 0.00 93 994.8
20260904200755 53 116 1.0 4.0 0.00 0.00 0.00 92 994.8
20260904200515 53 97 2.0 4.0 0.00 0.00 0.00 93 994.8
20260904195754 53 110 1.0 3.0 0.00 0.00 0.00 92 994.9
20260904195254 53 82 3.0 3.0 0.00 0.00 0.00 92 994.9
20260904194755 53 65 1.0 3.0 0.00 0.00 0.00 92 994.9
20260904194255 53 56 0.0 2.0 0.00 0.00 0.00 92 995.0
20260904193754 53 55 0.0 2.0 0.00 0.00 0.00 92 995.0
20260904193254 53 55 0.0 2.0 0.00 0.00 0.00 92 995.1
20260904192755 53 55 0.0 4.0 0.00 0.00 0.00 92 995.0
20260904192254 53 99 1.0 4.0 0.00 0.00 0.00 92 995.1
20260904191753 53 102 1.0 6.0 0.00 0.00 0.00 92 995.1
20260904191517 53 73 3.0 6.0 0.00 0.00 0.00 92 995.2
20260904190753 53 90 2.0 5.0 0.00 0.00 0.00 91 995.2
20260904190745 53 96 2.0 5.0 0.00 0.00 0.00 91 995.2
20260904190025 53 69 2.0 3.0 0.00 0.00 0.00 91 995.3
20260904185253 53 94 1.0 3.0 0.00 0.00 0.00 90 995.4
20260904184753 53 100 0.0 2.0 0.00 0.00 0.00 90 995.4
20260904184253 53 100 0.0 4.0 0.00 0.00 0.00 89 995.5
20260904183753 53 100 0.0 4.0 0.00 0.00 0.00 89 995.5
20260904183252 53 87 1.0 4.0 0.00 0.00 0.00 89 995.6
20260904183016 53 94 1.0 7.0 0.00 0.00 0.00 89 995.6
20260904182515 53 94 4.0 9.0 0.00 0.00 0.00 88 995.6
20260904181753 53 103 5.0 9.0 0.00 0.00 0.00 88 995.6
20260904181513 53 71 3.0 6.0 0.00 0.00 0.00 88 995.7
20260904180753 53 71 3.0 5.0 0.00 0.00 0.00 88 995.8
20260904180518 53 85 2.0 7.0 0.00 0.00 0.00 87 995.8
20260904180243 53 147 4.0 7.0 0.00 0.00 0.00 87 995.9
20260904175252 54 85 4.0 7.0 0.00 0.00 0.00 86 995.9
20260904175240 55 157 3.0 5.0 0.00 0.00 0.00 86 995.9
20260904174251 55 145 3.0 5.0 0.00 0.00 0.00 85 996.0
20260904174234 55 147 1.0 5.0 0.00 0.00 0.00 85 996.0
20260904173251 55 135 3.0 6.0 0.00 0.00 0.00 84 995.9
20260904173018 56 137 4.0 6.0 0.00 0.00 0.00 83 996.0
20260904172252 56 147 3.0 6.0 0.00 0.00 0.00 84 996.0
20260904171751 56 148 0.0 9.0 0.00 0.00 0.00 85 995.9
20260904171519 56 196 4.0 9.0 0.00 0.00 0.00 84 996.0
20260904171011 57 157 2.0 3.0 0.00 0.00 0.00 87 995.9
20260904170251 57 185 2.0 3.0 0.00 0.00 0.00 87 995.9
20260904165751 57 175 1.0 3.0 0.00 0.00 0.00 87 995.9
20260904165250 58 203 1.0 2.0 0.00 0.00 0.00 86 995.9
20260904164751 58 200 1.0 2.0 0.00 0.00 0.00 85 995.9
20260904164251 58 196 0.0 2.0 0.00 0.00 0.00 85 996.0
20260904164007 58 243 0.0 2.0 0.00 0.00 0.00 84 995.9
20260904163249 58 179 0.0 0.0 0.00 0.00 0.00 83 996.0
20260904162749 59 179 0.0 3.0 0.00 0.00 0.00 82 996.0
20260904162249 59 179 1.0 3.0 0.00 0.00 0.00 82 996.0
20260904161749 59 144 0.0 1.0 0.00 0.00 0.00 82 995.9
20260904161249 59 144 0.0 2.0 0.00 0.00 0.00 81 995.9
20260904160749 59 142 0.0 3.0 0.00 0.00 0.00 81 995.9
20260904160735 59 144 1.0 4.0 0.00 0.00 0.00 80 995.9
20260904155749 59 130 2.0 4.0 0.00 0.00 0.00 80 996.0
20260904155727 59 128 1.0 3.0 0.00 0.00 0.00 80 996.0
20260904155008 59 128 1.0 3.0 0.00 0.00 0.00 81 996.0
20260904154248 59 128 1.0 4.0 0.00 0.00 0.00 80 996.1
20260904154008 59 121 1.0 4.0 0.00 0.00 0.00 80 996.1
20260904153248 59 61 1.0 2.0 0.00 0.00 0.00 81 996.2
20260904152748 59 61 0.0 2.0 0.00 0.00 0.00 80 996.2
20260904152247 59 61 1.0 2.0 0.00 0.00 0.00 79 996.3
20260904152008 59 61 1.0 2.0 0.00 0.00 0.00 79 996.3
20260904151247 59 61 1.0 3.0 0.00 0.00 0.00 79 996.4
20260904150748 59 61 2.0 3.0 0.00 0.00 0.00 79 996.5
20260904150247 59 224 1.0 2.0 0.00 0.00 0.00 80 996.4
20260904145748 59 224 1.0 2.0 0.00 0.00 0.00 80 996.5
20260904145247 60 224 0.0 3.0 0.00 0.00 0.00 80 996.6
20260904144748 60 224 0.0 3.0 0.00 0.00 0.00 79 996.7
20260904144246 60 213 2.0 4.0 0.00 0.00 0.00 77 996.7
20260904143747 61 188 2.0 4.0 0.00 0.00 0.00 76 996.8
20260904143506 61 185 1.0 3.0 0.00 0.00 0.00 75 996.7
20260904142747 61 238 0.0 3.0 0.00 0.00 0.00 75 996.8
20260904142246 61 203 1.0 3.0 0.00 0.00 0.00 74 996.9
20260904141747 61 261 1.0 5.0 0.00 0.00 0.00 73 996.9
20260904141247 61 237 1.0 5.0 0.00 0.00 0.00 72 996.9
20260904140746 62 265 1.0 4.0 0.00 0.00 0.00 72 997.0
20260904140246 62 223 1.0 4.0 0.00 0.00 0.00 71 997.1
20260904135745 62 238 2.0 4.0 0.00 0.00 0.00 70 997.1
20260904135246 62 202 0.0 4.0 0.00 0.00 0.00 69 997.2
20260904134747 62 203 2.0 5.0 0.00 0.00 0.00 67 997.2
20260904134245 63 261 1.0 5.0 0.00 0.00 0.00 67 997.2
20260904133746 63 258 1.0 7.0 0.00 0.00 0.00 66 997.2
20260904133245 63 214 1.0 7.0 0.00 0.00 0.00 65 997.2
20260904132746 63 195 2.0 5.0 0.00 0.00 0.00 65 997.2
20260904132733 63 221 4.0 5.0 0.00 0.00 0.00 64 997.3
20260904131745 63 275 2.0 5.0 0.00 0.00 0.00 64 997.3
20260904131245 63 203 3.0 6.0 0.00 0.00 0.00 64 997.3
20260904130744 64 207 3.0 6.0 0.00 0.00 0.00 63 997.3
20260904130245 64 227 2.0 6.0 0.00 0.00 0.00 62 997.4
20260904125745 64 212 2.0 4.0 0.00 0.00 0.00 61 997.3
20260904125245 64 206 2.0 4.0 0.00 0.00 0.00 60 997.3
20260904125012 64 183 1.0 5.0 0.00 0.00 0.00 61 997.3
20260904124245 65 141 2.0 5.0 0.00 0.00 0.00 58 997.4
20260904124225 65 186 1.0 5.0 0.00 0.00 0.00 57 997.5
20260904123506 65 213 3.0 5.0 0.00 0.00 0.00 55 997.5
20260904122744 65 138 3.0 5.0 0.00 0.00 0.00 55 997.5
20260904122244 65 127 3.0 5.0 0.00 0.00 0.00 54 997.6
20260904121744 65 251 2.0 3.0 0.00 0.00 0.00 57 997.6
20260904121244 65 265 1.0 3.0 0.00 0.00 0.00 59 997.7
20260904120744 65 281 1.0 3.0 0.00 0.00 0.00 57 997.8
20260904120243 65 279 2.0 3.0 0.00 0.00 0.00 58 997.8
20260904115743 64 183 2.0 6.0 0.00 0.00 0.00 58 997.9
20260904115244 64 96 4.0 6.0 0.00 0.00 0.00 58 998.0
20260904114743 64 302 2.0 5.0 0.00 0.00 0.00 57 998.0
20260904114243 65 309 2.0 4.0 0.00 0.00 0.00 57 998.1
20260904113743 65 220 2.0 4.0 0.00 0.00 0.00 59 998.2
20260904113243 65 189 2.0 5.0 0.00 0.00 0.00 59 998.2
20260904112743 64 235 2.0 5.0 0.00 0.00 0.00 59 998.3
20260904112243 64 276 2.0 3.0 0.00 0.00 0.00 57 998.3
20260904112006 64 248 1.0 3.0 0.00 0.00 0.00 58 998.3
20260904111242 65 293 2.0 3.0 0.00 0.00 0.00 57 998.4
20260904110742 65 302 1.0 3.0 0.00 0.00 0.00 57 998.4
20260904110508 65 247 2.0 3.0 0.00 0.00 0.00 59 998.4
20260904105742 65 261 0.0 3.0 0.00 0.00 0.00 58 998.4
20260904105242 65 243 0.0 3.0 0.00 0.00 0.00 57 998.5
20260904104742 65 275 2.0 3.0 0.00 0.00 0.00 58 998.5
20260904104242 65 279 1.0 3.0 0.00 0.00 0.00 57 998.6
20260904103958 65 238 1.0 2.0 0.00 0.00 0.00 56 998.6
20260904103242 65 248 1.0 3.0 0.00 0.00 0.00 58 998.6
20260904102742 64 183 1.0 3.0 0.00 0.00 0.00 55 998.6
20260904102241 65 209 2.0 3.0 0.00 0.00 0.00 55 998.6
20260904101741 65 274 1.0 5.0 0.00 0.00 0.00 59 998.6
20260904101241 65 286 0.0 5.0 0.00 0.00 0.00 59 998.6
20260904100743 65 235 2.0 5.0 0.00 0.00 0.00 58 998.7
20260904100241 65 199 2.0 5.0 0.00 0.00 0.00 57 998.7
20260904095741 66 245 1.0 3.0 0.00 0.00 0.00 59 998.7
20260904095241 65 248 1.0 4.0 0.00 0.00 0.00 59 998.7
20260904094740 65 275 2.0 4.0 0.00 0.00 0.00 59 998.8
20260904094506 65 269 1.0 4.0 0.00 0.00 0.00 60 998.8
20260904093741 65 234 3.0 5.0 0.00 0.00 0.00 62 998.8
20260904093240 64 281 1.0 5.0 0.00 0.00 0.00 63 998.8
20260904092740 64 298 2.0 4.0 0.00 0.00 0.00 65 998.9
20260904092240 64 292 1.0 4.0 0.00 0.00 0.00 63 998.9
20260904091740 63 237 2.0 4.0 0.00 0.00 0.00 63 999.0
20260904091456 63 272 1.0 3.0 0.00 0.00 0.00 65 998.9
20260904090740 63 288 2.0 3.0 0.00 0.00 0.00 66 998.9
20260904090240 62 312 1.0 3.0 0.00 0.00 0.00 68 998.9
20260904085739 62 312 2.0 3.0 0.00 0.00 0.00 67 999.0
20260904085240 62 268 2.0 3.0 0.00 0.00 0.00 68 999.0
20260904084740 62 271 2.0 3.0 0.00 0.00 0.00 67 999.1
20260904084240 62 290 2.0 4.0 0.00 0.00 0.00 68 999.1
20260904083739 62 292 2.0 4.0 0.00 0.00 0.00 68 999.2
20260904083239 62 293 2.0 3.0 0.00 0.00 0.00 68 999.2
20260904082739 62 258 1.0 4.0 0.00 0.00 0.00 69 999.1
20260904082459 62 258 2.0 4.0 0.00 0.00 0.00 70 999.1
20260904081959 62 295 2.0 4.0 0.00 0.00 0.00 70 999.1
20260904081238 61 293 2.0 4.0 0.00 0.00 0.00 69 999.1
20260904080739 61 288 1.0 3.0 0.00 0.00 0.00 69 999.2
20260904080238 61 305 2.0 3.0 0.00 0.00 0.00 71 999.2
20260904075739 61 317 2.0 5.0 0.00 0.00 0.00 71 999.2
20260904075239 61 257 1.0 5.0 0.00 0.00 0.00 72 999.2
20260904074738 60 216 2.0 3.0 0.00 0.00 0.00 73 999.3
20260904074238 60 293 2.0 5.0 0.00 0.00 0.00 73 999.3
20260904073737 60 283 3.0 5.0 0.00 0.00 0.00 72 999.4
20260904073458 60 261 2.0 4.0 0.00 0.00 0.00 73 999.3
20260904072738 60 300 2.0 4.0 0.00 0.00 0.00 74 999.4
20260904072238 60 302 1.0 3.0 0.00 0.00 0.00 75 999.4
20260904071737 60 314 1.0 3.0 0.00 0.00 0.00 76 999.4
20260904071237 59 271 1.0 4.0 0.00 0.00 0.00 76 999.4
20260904070737 59 298 2.0 4.0 0.00 0.00 0.00 76 999.5
20260904070237 59 278 2.0 4.0 0.00 0.00 0.00 76 999.4
20260904065737 59 248 2.0 4.0 0.00 0.00 0.00 78 999.5
20260904065237 59 275 2.0 4.0 0.00 0.00 0.00 79 999.5
20260904064737 58 295 0.0 3.0 0.00 0.00 0.00 81 999.5
20260904064501 57 295 2.0 3.0 0.00 0.00 0.00 81 999.4
20260904063737 56 307 2.0 3.0 0.00 0.00 0.00 83 999.4
20260904063237 56 298 2.0 3.0 0.00 0.00 0.00 85 999.6
20260904062737 56 300 2.0 3.0 0.00 0.00 0.00 87 999.6
20260904062236 55 324 2.0 3.0 0.00 0.00 0.00 89 999.7
20260904061736 54 306 2.0 4.0 0.00 0.00 0.00 90 999.6
20260904061236 54 283 2.0 4.0 0.00 0.00 0.00 92 999.6
20260904060736 53 261 2.0 3.0 0.00 0.00 0.00 93 999.6
20260904060236 52 261 1.0 3.0 0.00 0.00 0.00 94 999.6
20260904055736 52 261 1.0 3.0 0.00 0.00 0.00 94 999.6
20260904055236 51 195 0.0 1.0 0.00 0.00 0.00 95 999.6
20260904054735 50 195 0.0 2.0 0.00 0.00 0.00 95 999.5
20260904054236 50 195 0.0 2.0 0.00 0.00 0.00 95 999.5
20260904053736 50 195 1.0 2.0 0.00 0.00 0.00 95 999.6
20260904053235 49 195 0.0 0.0 0.00 0.00 0.00 95 999.6
20260904052735 49 195 0.0 0.0 0.00 0.00 0.00 94 999.6
20260904052236 49 195 0.0 1.0 0.00 0.00 0.00 95 999.7
20260904051958 49 195 0.0 1.0 0.00 0.00 0.00 95 999.7
20260904051234 48 195 0.0 0.0 0.00 0.00 0.00 95 999.7
20260904050734 48 195 0.0 0.0 0.00 0.00 0.00 95 999.6
20260904050235 47 195 0.0 0.0 0.00 0.00 0.00 95 999.7
20260904045734 47 195 0.0 0.0 0.00 0.00 0.00 94 999.7
20260904045234 47 195 0.0 0.0 0.00 0.00 0.00 94 999.7
20260904044958 47 195 0.0 0.0 0.00 0.00 0.00 94 999.7
20260904044234 47 195 0.0 0.0 0.00 0.00 0.00 94 999.7
20260904043735 46 195 0.0 0.0 0.00 0.00 0.00 95 999.7
20260904043234 46 195 0.0 0.0 0.00 0.00 0.00 95 999.7
20260904042734 46 195 0.0 0.0 0.00 0.00 0.00 94 999.8
20260904042234 45 195 0.0 0.0 0.00 0.00 0.00 94 999.8
20260904041735 45 195 0.0 0.0 0.00 0.00 0.00 94 1000.0
20260904041234 45 192 0.0 0.0 0.00 0.00 0.00 94 1000.0
20260904040735 45 192 0.0 0.0 0.00 0.00 0.00 93 1000.0
20260904040233 45 192 0.0 0.0 0.00 0.00 0.00 93 1000.0
20260904035956 45 192 0.0 0.0 0.00 0.00 0.00 94 1000.0
20260904035234 45 192 0.0 0.0 0.00 0.00 0.00 94 1000.0
20260904034734 45 192 0.0 0.0 0.00 0.00 0.00 93 1000.0
20260904034233 45 192 0.0 0.0 0.00 0.00 0.00 94 999.9
20260904033953 45 192 0.0 0.0 0.00 0.00 0.00 93 1000.0
20260904033233 45 192 0.0 0.0 0.00 0.00 0.00 93 1000.0
20260904032732 45 192 0.0 0.0 0.00 0.00 0.00 93 1000.0
20260904032233 45 192 0.0 0.0 0.00 0.00 0.00 93 999.9
20260904031952 45 192 0.0 0.0 0.00 0.00 0.00 93 1000.0
20260904031233 45 192 0.0 0.0 0.00 0.00 0.00 93 1000.0
20260904030956 45 192 0.0 0.0 0.00 0.00 0.00 93 1000.1